EW4877 Weather Reports


Display with metric or nautical units.
time (UTC)temp
F
wind
direction
speed
MPH
gust
MPH
rain 1hr
in
rain 24hr
in
rain mn
in
humidity
%
barometer
mb
20260506073503 60 209 0.0 0.0 0.00 0.02 0.00 77 1017.4
20260506073004 60 209 0.0 1.0 0.00 0.02 0.00 76 1017.4
20260506072504 60 199 0.0 2.0 0.00 0.02 0.00 76 1017.3
20260506072004 60 182 0.0 2.0 0.00 0.02 0.00 76 1017.3
20260506071504 60 179 0.0 2.0 0.00 0.02 0.00 76 1017.3
20260506071004 60 180 0.0 2.0 0.00 0.02 0.00 76 1017.2
20260506062503 60 212 1.0 2.0 0.00 0.06 0.02 76 1016.9
20260506062004 60 236 1.0 3.0 0.00 0.06 0.02 75 1016.8
20260506061004 60 209 1.0 4.0 0.00 0.06 0.02 75 1016.8
20260506060504 60 246 1.0 3.0 0.00 0.06 0.02 75 1016.7
20260506051003 61 101 0.0 0.0 0.00 0.14 0.02 76 1016.1
20260506050504 61 101 0.0 0.0 0.00 0.14 0.02 75 1016.0
20260506045004 62 98 0.0 2.0 0.00 0.42 0.02 75 1015.9
20260506044504 62 88 0.0 2.0 0.00 0.42 0.02 75 1015.9
20260506044003 62 85 0.0 2.0 0.00 0.42 0.02 74 1015.9
20260506043503 62 94 0.0 2.0 0.00 0.42 0.02 74 1015.8
20260506042004 62 92 0.0 0.0 0.00 0.42 0.02 72 1015.6
20260506041003 62 159 0.0 3.0 0.00 0.42 0.02 71 1015.4
20260506040503 62 211 0.0 3.0 0.00 0.42 0.02 71 1015.4
20260506040007 62 216 0.0 3.0 0.00 0.42 0.02 71 1015.4
20260506034504 63 184 1.0 3.0 0.00 0.57 0.02 69 1015.1
20260506033505 63 177 0.0 2.0 0.00 0.57 0.02 70 1015.2
20260506032503 63 135 1.0 2.0 0.00 0.57 0.02 69 1015.0
20260506032004 63 140 1.0 4.0 0.00 0.57 0.02 68 1014.9
20260506030503 64 142 1.0 6.0 0.00 0.57 0.02 68 1014.7
20260506025503 64 198 1.0 3.0 0.00 0.70 0.02 68 1014.6
20260506025004 64 110 1.0 6.0 0.00 0.70 0.02 67 1014.5
20260506024003 64 169 1.0 4.0 0.00 0.70 0.02 66 1014.3
20260506023503 64 159 1.0 4.0 0.00 0.70 0.02 66 1014.3
20260506023004 65 233 1.0 4.0 0.00 0.70 0.02 66 1014.2
20260506022504 65 156 1.0 4.0 0.00 0.70 0.02 65 1014.2
20260506022004 65 155 0.0 3.0 0.00 0.70 0.02 65 1014.3
20260506020503 65 130 0.0 2.0 0.00 0.70 0.02 65 1014.0
20260506020006 65 189 0.0 2.0 0.00 0.70 0.02 64 1014.1
20260506014504 66 96 0.0 2.0 0.00 0.74 0.02 63 1013.9
20260506013504 66 346 1.0 4.0 0.00 0.74 0.02 63 1014.0
20260506013004 66 100 1.0 3.0 0.00 0.74 0.02 63 1013.9
20260506012504 66 174 1.0 4.0 0.00 0.74 0.02 63 1013.9
20260506012003 66 92 1.0 2.0 0.00 0.74 0.02 63 1013.8
20260506011503 66 307 0.0 3.0 0.00 0.74 0.02 63 1013.7
20260506011003 66 148 0.0 3.0 0.00 0.74 0.02 64 1013.7
20260506010504 65 70 0.0 3.0 0.00 0.74 0.02 64 1013.8
20260506010006 65 114 0.0 2.0 0.00 0.74 0.02 66 1013.8
20260506005504 65 111 1.0 5.0 0.00 0.84 0.02 66 1013.8
20260506005004 65 97 1.0 5.0 0.00 0.84 0.02 67 1013.8
20260506004504 65 79 0.0 3.0 0.00 0.84 0.02 68 1013.8
20260506004002 65 80 1.0 3.0 0.00 0.84 0.02 67 1013.8
20260506003503 65 100 1.0 2.0 0.00 0.84 0.02 67 1013.8
20260506003004 65 69 1.0 3.0 0.00 0.84 0.02 67 1013.8
20260506002504 65 51 1.0 3.0 0.00 0.84 0.02 66 1013.8
20260506001505 65 100 1.0 2.0 0.00 0.84 0.02 67 1013.6
20260506001003 65 97 1.0 4.0 0.00 0.84 0.02 67 1013.6
20260506000503 65 87 1.0 4.0 0.00 0.84 0.02 68 1013.7
20260506000006 65 92 0.0 3.0 0.00 0.84 0.02 67 1013.7
20260505235002 65 88 1.0 3.0 0.00 0.92 0.02 68 1013.7
20260505234504 65 93 1.0 4.0 0.00 0.92 0.02 67 1013.7
20260505234003 65 96 1.0 3.0 0.00 0.92 0.02 67 1013.8
20260505232503 65 97 1.0 4.0 0.00 0.92 0.02 68 1013.8
20260505232003 64 79 2.0 4.0 0.00 0.92 0.02 69 1013.9
20260505231503 64 51 2.0 4.0 0.00 0.92 0.02 70 1013.9
20260505231003 64 73 1.0 4.0 0.00 0.92 0.02 69 1013.8
20260505230502 64 66 1.0 3.0 0.00 0.92 0.02 70 1013.9
20260505230004 64 49 1.0 3.0 0.00 0.92 0.02 69 1013.9
20260505225504 64 33 1.0 3.0 0.00 1.01 0.02 70 1013.9
20260505225001 64 40 1.0 3.0 0.00 1.01 0.02 69 1014.0
20260505224504 64 347 0.0 2.0 0.00 1.01 0.02 70 1014.0
20260505224002 64 5 0.0 2.0 0.00 1.01 0.02 70 1014.0
20260505223502 64 329 0.0 0.0 0.00 1.01 0.02 70 1014.0
20260505223003 64 344 1.0 3.0 0.00 1.01 0.02 69 1014.0
20260505222502 64 23 1.0 3.0 0.00 1.01 0.02 68 1014.1
20260505222002 64 42 0.0 1.0 0.00 1.01 0.02 69 1014.1
20260505221503 64 26 0.0 2.0 0.00 1.01 0.02 68 1014.2
20260505220007 64 12 1.0 3.0 0.00 1.01 0.02 67 1014.2
20260505215505 64 20 1.0 3.0 0.00 1.09 0.02 66 1014.3
20260505215003 65 39 0.0 3.0 0.00 1.09 0.02 66 1014.3
20260505214504 65 335 0.0 2.0 0.00 1.09 0.02 66 1014.4
20260505214003 65 13 0.0 2.0 0.00 1.09 0.02 64 1014.4
20260505213505 65 360 0.0 2.0 0.00 1.09 0.02 65 1014.4
20260505213003 66 22 0.0 2.0 0.00 1.09 0.02 64 1014.3
20260505212503 66 227 0.0 2.0 0.00 1.09 0.02 64 1014.4
20260505212003 66 269 0.0 2.0 0.00 1.09 0.02 64 1014.4
20260505211503 66 267 0.0 2.0 0.00 1.09 0.02 63 1014.3
20260505211004 67 203 1.0 3.0 0.00 1.09 0.02 63 1014.3
20260505210503 67 221 2.0 6.0 0.00 1.09 0.02 62 1014.3
20260505210006 67 265 2.0 6.0 0.00 1.09 0.02 59 1014.3
20260505205503 68 223 2.0 5.0 0.00 1.13 0.02 60 1014.3
20260505205002 68 313 2.0 5.0 0.00 1.13 0.02 60 1014.3
20260505204504 69 242 2.0 5.0 0.00 1.13 0.02 61 1014.3
20260505204002 68 292 3.0 8.0 0.00 1.13 0.02 60 1014.3
20260505202502 68 225 3.0 8.0 0.00 1.13 0.02 63 1014.4
20260505202003 67 202 3.0 9.0 0.00 1.13 0.02 62 1014.4
20260505201504 67 208 3.0 8.0 0.00 1.13 0.02 67 1014.4
20260505201003 66 267 3.0 8.0 0.00 1.13 0.02 65 1014.5
20260505200503 66 256 4.0 8.0 0.00 1.13 0.02 64 1014.5
20260505200007 66 273 4.0 8.0 0.00 1.13 0.02 68 1014.5
20260505195504 66 232 3.0 8.0 0.00 1.13 0.02 66 1014.6
20260505195003 66 271 3.0 7.0 0.00 1.13 0.02 65 1014.6
20260505194505 66 287 3.0 7.0 0.00 1.13 0.02 65 1014.6
20260505194002 66 222 2.0 5.0 0.00 1.13 0.02 66 1014.7
20260505193502 67 250 2.0 6.0 0.00 1.13 0.02 64 1014.7
20260505193003 67 248 2.0 6.0 0.00 1.13 0.02 62 1014.8
20260505192503 67 243 3.0 8.0 0.00 1.13 0.02 66 1014.8
20260505192004 67 187 3.0 8.0 0.00 1.13 0.02 63 1014.7
20260505191002 66 217 2.0 7.0 0.00 1.13 0.02 68 1014.7
20260505190503 65 225 1.0 7.0 0.00 1.13 0.02 70 1014.7
20260505190006 64 27 2.0 5.0 0.00 1.13 0.02 73 1014.7
20260505185503 63 113 2.0 7.0 0.00 1.13 0.02 73 1014.7
20260505185003 62 240 1.0 7.0 0.00 1.13 0.02 72 1014.7
20260505184503 62 92 1.0 3.0 0.00 1.13 0.02 75 1014.8
20260505184003 61 80 2.0 3.0 0.00 1.13 0.02 73 1014.7
20260505183003 61 234 2.0 5.0 0.00 1.13 0.02 73 1014.7
20260505182502 61 223 1.0 5.0 0.00 1.13 0.02 75 1014.7
20260505181504 61 268 2.0 5.0 0.00 1.13 0.02 76 1014.6
20260505181003 61 211 2.0 6.0 0.00 1.13 0.02 76 1014.6
20260505180503 61 252 1.0 6.0 0.00 1.13 0.02 77 1014.6
20260505180005 60 259 1.0 5.0 0.00 1.13 0.02 78 1014.6
20260505175501 60 227 2.0 4.0 0.00 1.13 0.02 81 1014.6
20260505175002 60 202 2.0 5.0 0.00 1.13 0.02 82 1014.6
20260505174502 59 267 2.0 5.0 0.00 1.13 0.02 80 1014.6
20260505173502 59 232 2.0 4.0 0.00 1.13 0.02 83 1014.6
20260505173003 59 244 2.0 4.0 0.00 1.13 0.02 82 1014.6
20260505172501 58 179 1.0 4.0 0.00 1.13 0.02 85 1014.6
20260505171503 58 90 1.0 3.0 0.00 1.13 0.02 85 1014.6
20260505170502 57 182 2.0 6.0 0.00 1.13 0.02 85 1014.6
20260505170006 57 154 1.0 5.0 0.00 1.13 0.02 87 1014.6
20260505165502 56 198 0.0 6.0 0.00 1.13 0.02 89 1014.6
20260505165001 56 151 1.0 3.0 0.00 1.13 0.02 89 1014.5
20260505164503 56 171 1.0 3.0 0.00 1.13 0.02 90 1014.5
20260505164002 55 173 1.0 5.0 0.00 1.13 0.02 90 1014.5
20260505162502 55 150 1.0 7.0 0.00 1.13 0.02 91 1014.4
20260505162002 54 148 1.0 5.0 0.00 1.13 0.02 92 1014.4
20260505161003 54 182 0.0 5.0 0.00 1.13 0.02 93 1014.4
20260505160501 54 88 0.0 4.0 0.00 1.13 0.02 93 1014.4
20260505153002 53 140 1.0 3.0 0.00 1.13 0.02 93 1014.4
20260505152002 53 212 1.0 3.0 0.00 1.13 0.02 94 1014.4
20260505151502 52 197 1.0 3.0 0.00 1.13 0.02 94 1014.3
20260505151002 52 173 1.0 5.0 0.00 1.13 0.02 94 1014.2
20260505150503 52 187 0.0 3.0 0.00 1.13 0.02 94 1014.2
20260505140502 51 93 0.0 0.0 0.00 1.13 0.02 93 1013.6
20260505124503 51 171 0.0 4.0 0.00 1.13 0.02 93 1013.3
20260505124002 51 126 0.0 5.0 0.00 1.13 0.02 93 1013.3
20260505123502 51 122 1.0 3.0 0.00 1.13 0.02 93 1013.3
20260505123002 51 186 1.0 4.0 0.00 1.13 0.02 93 1013.2
20260505122503 51 218 2.0 4.0 0.00 1.13 0.02 93 1013.2
20260505122001 52 213 2.0 5.0 0.00 1.13 0.02 93 1013.2
20260505121502 52 236 2.0 5.0 0.00 1.13 0.02 93 1013.2
20260505121002 52 199 2.0 7.0 0.00 1.13 0.02 93 1013.1
20260505120005 52 198 2.0 4.0 0.00 1.13 0.02 93 1013.1
20260505115501 52 190 1.0 4.0 0.00 1.13 0.02 94 1013.1
20260505115003 52 197 1.0 4.0 0.00 1.13 0.02 94 1013.1
20260505114504 52 209 1.0 6.0 0.00 1.13 0.02 94 1013.1
20260505114002 52 179 1.0 6.0 0.00 1.13 0.02 94 1013.1
20260505113502 52 190 0.0 4.0 0.00 1.13 0.02 94 1013.2
20260505113002 52 152 0.0 2.0 0.00 1.13 0.02 94 1013.3
20260505112501 52 166 0.0 2.0 0.00 1.13 0.02 94 1013.3
20260505112001 52 191 0.0 2.0 0.00 1.13 0.02 93 1013.3
20260505111504 52 201 1.0 4.0 0.00 1.13 0.02 93 1013.3
20260505111003 52 160 2.0 6.0 0.00 1.13 0.02 93 1013.3
20260505110502 52 160 1.0 6.0 0.00 1.13 0.02 94 1013.2
20260505102001 52 114 0.0 0.0 0.00 1.13 0.02 93 1013.2
20260505101503 52 92 0.0 0.0 0.00 1.13 0.02 93 1013.2
20260505101002 52 92 0.0 0.0 0.00 1.13 0.02 93 1013.2
20260505100458 52 107 0.0 0.0 0.00 1.13 0.02 93 1013.3
20260505100005 52 107 0.0 0.0 0.00 1.13 0.02 93 1013.3
20260505095503 52 118 0.0 0.0 0.00 1.13 0.02 93 1013.3
20260505095002 52 157 0.0 0.0 0.00 1.13 0.02 94 1013.3
20260505094503 52 225 0.0 0.0 0.00 1.13 0.02 93 1013.2
20260505094002 52 202 0.0 2.0 0.00 1.13 0.02 94 1013.3
20260505093501 52 101 0.0 2.0 0.00 1.13 0.02 93 1013.3
20260505093004 52 122 0.0 2.0 0.00 1.13 0.02 93 1013.4
20260505092502 52 253 0.0 0.0 0.00 1.13 0.02 93 1013.4
20260505092004 52 161 0.0 0.0 0.00 1.13 0.02 93 1013.4
20260505091503 52 115 0.0 2.0 0.00 1.13 0.02 94 1013.5
20260505091001 52 92 0.0 2.0 0.00 1.13 0.02 93 1013.7
20260505090005 52 127 0.0 2.0 0.00 1.13 0.02 93 1013.8
20260505085503 52 127 0.0 2.0 0.00 1.13 0.02 93 1013.8
20260505085002 52 109 0.0 2.0 0.00 1.13 0.02 93 1013.9
20260505084503 52 103 0.0 2.0 0.00 1.13 0.02 93 1013.8
20260505084003 52 189 0.0 2.0 0.00 1.13 0.02 93 1013.9
20260505083502 52 121 0.0 2.0 0.00 1.13 0.02 93 1014.0
20260505083003 52 122 0.0 2.0 0.00 1.13 0.02 93 1014.0
20260505081503 52 98 0.0 2.0 0.01 1.13 0.02 93 1014.1
20260505081003 52 101 0.0 2.0 0.01 1.13 0.02 93 1013.8
20260505080502 52 132 0.0 2.0 0.01 1.13 0.02 93 1013.8